User: anonymous   Login
Location: Unspecified
(0.0000°N, 0.0000°E)
Time: 15:10:12
(UTC+00:00)
Language:

S-56A Canister/Altair - Orbit

View from above orbital plane
View from above orbital plane
View from above satellite
View from above satellite

Ground track
Ground track

The orbit data is extracted from the following two-line orbital elements,

1 00082U 61004B   14302.81215611  .00000044  00000-0  60353-4 0  7331
2 00082 038.8637 254.1239 1177446 236.3956 111.8878 12.25647686555294
Epoch (UTC): 29 October 2014 19:29:30
Eccentricity: 0.1177446
inclination: 38.8637°
perigee height: 632 km
apogee height: 2503 km
right ascension of ascending node: 254.1239°
argument of perigee: 236.3956°
revolutions per day: 12.25647686
mean anomaly at epoch: 111.8878°
orbit number at epoch: 55529

The dashed part of the orbit path shows where the satellite is in the earth's shadow,  

DLR